Theta_e
303 298 296 296 299 299 299 300 301 298 298 296 296 295 294 294 296 298 297 297 296 294 295 296 297 297 298 300 299 296 295 295 295 294 294 294 294 294 293 293 293 292 292 294 294 294 295 295 295 296 297 298 298 297 298 299 299 300 301 301 300 301 303 304 304 303 303 300 297 296 295 294 294 294 294 294 295 295 296 296 297 297 298 299 300 301
299 297 298 301 301 301 300 300 298 296 295 295 295 294 294 295 293 297 295 295 296 294 295 297 295 296 297 299 297 295 294 294 295 294 294 294 293 293 293 292 292 292 293 294 294 293 294 294 295 296 296 296 296 296 297 297 298 299 300 300 300 301 301 301 301 300 299 298 297 295 294 294 294 294 293 293 294 294 295 295 295 295 296 296 297 297
295 295 299 301 297 297 296 297 297 296 296 295 294 295 293 295 296 297 296 296 295 294 294 295 294 296 298 299 294 295 294 295 294 295 294 293 293 292 292 292 292 292 292 293 293 293 293 294 294 295 295 295 295 296 296 297 298 298 299 299 300 300 300 299 300 299 298 297 297 295 294 293 292 294 294 293 294 294 293 293 294 294 294 295 295 295
293 296 300 298 297 296 294 294 294 294 294 295 293 292 291 296 293 293 294 294 294 295 295 294 293 295 298 297 293 292 294 293 293 292 292 293 293 292 292 292 292 292 292 291 291 291 292 292 293 293 293 294 295 295 296 296 296 297 298 298 299 298 298 297 296 295 295 295 295 295 294 294 293 292 293 293 293 293 293 292 293 293 293 294 293 294
297 297 297 298 297 296 295 294 294 294 294 295 295 295 294 295 294 294 294 293 294 294 293 293 293 295 298 296 294 291 292 291 291 291 291 291 292 292 292 292 291 291 291 291 291 291 291 291 291 291 292 293 293 293 294 294 295 295 296 297 297 297 297 297 296 295 295 294 294 294 295 295 294 294 293 292 291 291 291 291 291 291 293 293 293 293
298 298 298 296 295 296 297 294 295 297 294 295 295 295 296 296 295 295 294 293 293 293 293 292 290 292 294 292 294 292 291 290 291 291 290 290 291 291 291 290 290 291 291 291 290 290 290 290 291 291 291 291 291 291 291 293 294 295 295 295 295 296 296 295 296 297 297 296 295 295 293 291 290 289 289 288 289 289 289 289 291 292 292 292 292 292
297 296 298 298 296 295 296 297 298 297 295 293 295 297 296 296 295 294 292 292 290 289 291 291 289 288 296 296 295 292 291 291 290 290 290 290 290 291 291 291 291 290 290 290 290 290 290 290 290 290 290 290 290 290 291 292 292 293 293 293 294 294 294 294 294 295 294 294 293 293 292 291 290 288 289 290 291 290 290 291 290 290 291 292 291 291
295 294 294 297 297 296 294 293 296 296 295 293 295 295 296 295 293 293 293 293 293 293 293 290 293 288 288 295 293 291 291 291 289 290 290 290 291 290 290 290 290 290 290 290 289 289 289 289 289 288 288 289 289 289 290 291 291 291 292 292 292 292 292 293 294 294 294 293 292 292 291 291 290 289 289 290 290 291 291 290 290 290 290 291 291 291
295 293 294 294 295 294 294 297 297 298 296 295 292 295 295 295 295 294 293 292 292 290 289 292 292 287 288 293 290 291 290 291 290 290 290 291 291 290 290 291 291 290 290 290 290 289 288 288 288 288 288 288 289 289 290 290 290 291 291 291 291 291 291 292 293 293 293 293 292 291 291 290 290 290 290 291 291 291 291 290 290 290 290 290 290 290
294 295 297 298 295 293 296 291 295 298 295 293 292 294 293 293 293 294 292 292 289 288 285 291 292 287 288 294 295 292 290 292 293 291 291 291 291 291 290 291 290 290 289 289 289 288 288 288 288 288 288 288 288 289 290 290 290 291 291 290 290 290 291 292 292 292 292 293 292 291 291 290 290 290 291 291 290 290 291 290 290 290 289 289 289 289
293 294 294 296 296 297 292 290 291 294 292 294 295 295 293 293 292 291 292 291 288 284 287 291 292 290 285 292 294 294 295 294 293 292 292 292 292 291 291 291 290 289 289 289 288 288 288 288 287 287 287 287 288 289 289 290 290 291 291 290 290 290 291 291 292 292 292 292 292 292 292 291 291 291 291 290 290 290 290 289 289 289 289 289 288 289
294 294 295 296 294 292 296 292 292 290 292 295 294 293 292 290 291 290 288 289 284 284 286 285 287 290 283 289 295 296 292 293 294 292 291 291 291 291 291 290 290 289 289 289 288 287 287 286 286 287 286 287 287 288 289 290 290 290 290 290 289 290 290 291 291 292 292 292 292 292 292 291 291 291 291 290 289 289 289 289 288 288 288 287 287 287
291 294 296 295 295 296 295 294 292 294 293 294 293 292 288 287 286 283 285 282 283 284 285 286 287 286 286 293 295 293 294 293 294 294 294 292 292 292 291 290 290 290 289 288 288 287 286 286 286 286 286 287 287 288 288 289 290 290 290 290 289 289 290 290 291 291 291 291 291 291 291 291 291 291 291 290 289 289 289 288 288 287 287 286 285 285
293 293 292 295 295 295 298 293 290 289 291 292 291 289 287 283 282 280 283 281 282 285 284 286 288 284 291 293 296 295 293 292 292 292 293 294 293 292 292 290 290 289 289 288 288 287 287 287 287 286 286 287 287 287 288 289 289 290 290 290 289 289 290 290 291 291 290 291 291 291 291 291 291 290 290 289 289 288 288 288 287 287 286 285 284 284
287 286 291 292 292 297 296 297 296 295 291 292 296 293 289 288 284 279 281 281 282 284 283 285 283 284 285 290 288 290 288 289 289 289 291 293 295 294 292 291 290 289 289 288 288 287 287 287 287 287 287 287 287 288 288 289 289 290 289 289 289 289 289 290 290 290 290 290 290 290 291 290 290 289 289 288 289 288 287 287 286 286 286 285 284 284
289 290 292 294 292 294 295 295 296 295 292 292 293 294 289 288 291 285 285 284 282 284 283 281 284 290 290 288 288 287 288 288 288 289 290 291 293 292 290 289 289 289 289 288 288 288 287 287 287 287 287 287 287 288 288 288 289 290 289 289 289 289 289 290 290 290 290 290 290 290 290 289 289 288 288 287 287 287 287 286 285 284 284 284 284 284
287 288 290 292 291 293 295 294 294 297 287 290 290 287 291 294 293 286 283 282 281 283 282 287 286 289 292 290 289 288 289 289 288 289 290 291 292 292 290 290 289 289 289 288 288 288 287 287 286 286 286 287 287 287 288 288 289 289 289 289 289 289 289 289 289 289 289 289 289 288 288 288 288 288 287 286 285 285 285 284 284 284 284 284 284 284
288 289 290 291 290 291 290 292 294 293 295 291 287 292 293 296 295 289 284 284 283 281 284 284 284 287 286 286 290 289 289 291 289 288 290 290 291 290 291 290 290 289 290 289 289 289 288 287 286 286 287 287 287 288 288 288 289 290 290 289 288 288 288 289 289 289 289 288 288 287 287 287 287 287 286 286 285 286 285 285 285 285 284 283 284 284
295 287 289 288 290 291 291 294 294 294 294 293 291 298 291 285 284 289 286 279 280 280 282 285 286 287 289 289 288 289 290 292 290 289 288 289 289 290 291 291 290 290 290 289 288 288 287 286 286 286 286 287 287 288 288 288 289 289 289 289 289 288 289 289 289 289 289 288 287 287 286 286 286 286 286 286 286 286 285 284 284 283 283 283 283 282
294 288 287 289 291 291 292 293 287 289 294 294 294 292 292 290 289 286 287 287 286 281 281 282 284 283 291 292 292 293 294 295 292 289 289 290 291 291 292 291 290 290 290 289 288 288 287 287 286 286 286 286 287 287 288 288 289 288 289 289 289 289 289 289 289 288 287 287 286 286 286 285 285 285 285 285 285 284 283 282 283 282 281 281 281 281
291 293 286 288 290 291 287 290 290 290 287 288 290 289 290 289 290 290 289 286 285 282 282 281 279 285 292 295 295 295 296 296 293 291 292 292 292 292 293 292 292 291 290 289 288 288 287 286 286 286 286 286 287 288 288 288 288 288 289 289 289 288 288 288 288 288 286 286 285 285 284 284 284 283 284 284 283 282 281 281 281 280 280 280 279 279
289 290 287 287 287 287 290 291 290 293 294 292 291 289 291 287 285 282 282 288 285 284 281 281 279 287 293 289 294 294 292 294 295 295 295 294 293 293 293 293 293 291 290 289 288 288 287 286 286 286 286 287 286 286 287 288 288 288 288 288 289 289 289 288 287 286 285 285 285 284 283 282 283 283 283 282 282 281 281 280 280 280 279 279 279 279
293 289 289 285 288 289 290 290 288 288 290 291 293 291 294 292 291 286 280 283 282 284 283 285 281 284 292 290 289 289 289 288 291 293 293 293 291 292 292 293 293 292 290 289 288 288 287 287 286 286 285 285 286 286 286 287 287 288 288 288 289 288 288 288 287 286 284 284 283 282 282 281 281 281 281 281 280 279 279 279 279 278 278 278 278 278
293 289 287 287 290 289 289 290 289 287 290 290 290 289 290 288 289 288 288 287 285 283 282 283 279 285 291 287 286 285 285 285 287 286 289 290 290 291 292 292 291 290 289 289 287 288 287 287 287 285 284 285 285 286 286 287 287 288 288 288 288 288 288 287 285 283 283 282 282 282 281 281 280 280 280 279 279 278 278 278 277 277 276 276 277 276
289 289 289 286 285 286 287 289 289 291 291 289 290 290 291 291 290 288 287 286 283 284 284 282 277 284 291 287 288 288 287 287 288 289 289 290 291 291 291 291 291 290 289 288 287 287 286 286 285 284 284 284 285 286 286 287 287 288 288 288 287 287 286 284 283 282 282 281 281 281 280 280 280 279 279 278 278 277 276 276 276 276 275 275 275 275
292 291 288 283 280 278 277 279 282 285 287 289 286 285 288 290 289 287 284 285 281 284 282 282 282 289 289 287 290 289 287 289 291 291 290 291 291 290 291 291 291 290 289 288 287 286 285 285 284 284 283 284 285 285 286 287 287 288 287 286 286 284 284 283 282 281 280 280 279 278 278 278 277 277 277 276 276 275 275 275 274 274 275 274 274 274
289 292 292 289 287 285 287 285 286 289 287 285 286 287 289 290 291 290 289 286 282 285 283 285 286 287 290 291 289 290 285 290 291 287 288 289 290 290 291 291 290 290 289 287 287 286 284 284 283 283 283 284 285 286 287 287 287 287 286 285 284 283 282 281 280 279 278 278 278 277 277 277 277 277 276 276 275 275 274 274 274 274 273 273 272 272
288 287 289 289 289 289 291 288 288 290 288 288 287 287 290 288 287 286 285 284 287 284 280 287 289 286 288 291 290 291 291 290 291 291 291 288 289 291 291 291 290 289 288 287 285 284 283 284 284 283 283 284 285 286 287 287 286 286 284 283 283 282 281 280 279 278 277 278 278 278 277 277 277 276 276 275 275 274 274 273 273 272 273 272 272 272
288 287 289 289 287 290 289 288 287 288 290 290 290 289 288 289 286 284 285 288 288 284 281 287 289 286 289 291 292 289 293 293 292 292 292 291 292 291 290 289 289 288 287 286 285 284 283 283 284 284 284 284 285 285 286 286 285 284 283 282 282 281 279 279 278 278 278 278 278 278 277 277 276 276 275 274 274 273 273 272 272 272 271 271 271 271
289 288 288 289 287 289 291 288 288 288 288 288 288 289 289 289 288 287 287 289 288 287 288 289 289 288 291 292 290 293 294 293 293 293 291 290 289 290 290 289 289 288 287 286 286 285 285 285 286 285 285 285 285 285 286 285 284 283 282 281 280 279 279 279 279 279 279 278 278 277 277 276 275 274 274 273 273 272 272 271 271 271 270 270 270 270
289 286 288 287 286 286 287 288 287 287 286 285 287 288 288 288 288 288 287 288 288 287 288 288 287 287 292 294 293 294 288 292 290 288 290 291 291 290 289 289 290 290 289 288 288 287 286 286 287 286 285 284 284 285 285 285 284 282 282 281 280 279 279 280 280 279 278 278 277 276 276 275 274 274 273 273 272 271 271 270 270 270 269 269 269 269
288 286 285 286 283 283 283 284 285 285 284 284 285 286 287 286 284 286 285 287 286 285 286 286 284 285 291 291 291 293 290 289 290 291 291 291 290 289 289 290 290 290 290 290 289 289 288 287 286 286 285 285 284 285 284 283 282 281 281 280 279 279 280 280 279 278 278 277 276 276 275 274 273 273 272 271 271 270 269 269 269 269 268 268 268 268
287 285 283 283 281 281 282 283 281 281 281 280 281 284 287 287 288 288 289 289 289 289 285 283 284 289 291 291 289 289 289 289 290 290 291 291 290 290 290 290 291 291 290 290 289 289 288 287 287 286 286 285 285 284 284 284 283 281 280 279 279 279 279 279 278 278 277 276 275 275 274 273 272 272 271 270 269 269 268 268 268 267 267 267 267 267
285 286 285 286 279 280 276 280 282 280 273 275 287 290 288 286 286 285 285 287 288 289 286 289 289 288 286 287 288 289 288 288 290 291 292 292 292 290 289 290 290 290 290 290 290 289 289 289 288 287 286 285 285 285 285 284 283 282 281 280 279 278 278 278 277 277 276 275 274 274 273 272 271 271 270 269 268 268 267 267 267 267 267 267 267 267
284 285 285 286 281 280 278 280 277 272 274 285 285 284 283 286 287 286 286 287 288 288 288 288 288 287 288 289 290 291 291 290 287 288 288 288 289 290 290 289 289 289 289 289 290 290 290 289 289 288 286 285 285 285 285 284 283 281 280 279 278 278 277 277 276 275 274 273 273 272 272 271 271 270 269 268 267 267 267 266 266 266 267 267 266 266
284 285 285 283 284 279 277 277 271 272 283 283 284 281 283 284 285 285 284 287 287 287 288 287 289 290 289 288 289 288 287 286 285 285 285 286 287 289 289 289 289 289 289 290 290 290 290 290 289 288 286 287 286 286 285 284 282 280 279 278 277 277 277 276 275 274 273 272 272 271 271 271 270 269 268 268 267 266 267 266 266 265 266 265 266 266
289 287 285 281 285 276 278 276 277 283 282 283 284 282 283 282 283 283 280 284 288 287 288 287 288 289 289 288 288 284 281 283 283 286 287 286 286 287 288 289 289 288 288 288 289 289 290 290 289 288 287 286 286 284 283 281 280 279 277 276 276 276 275 275 274 273 273 272 271 271 271 270 269 268 268 267 266 266 266 266 265 265 265 264 265 265
289 285 286 282 280 284 277 276 276 276 272 279 285 283 284 285 286 285 284 280 284 284 287 287 286 287 288 286 284 282 282 282 281 285 287 286 286 286 286 285 284 285 286 287 286 287 287 287 287 286 286 285 284 284 282 279 279 278 276 276 275 275 274 274 274 273 272 272 271 271 270 270 269 268 267 266 265 265 266 265 265 264 264 264 264 263
282 285 286 284 280 281 279 275 274 273 276 284 283 279 281 281 284 284 282 277 282 279 284 286 286 287 286 284 281 282 282 279 280 285 287 285 285 285 284 284 284 284 285 285 285 284 284 284 285 284 284 283 282 281 279 278 277 276 275 275 274 274 274 274 274 273 272 272 271 270 269 269 268 267 266 265 265 264 264 264 264 264 263 263 263 262
280 281 282 280 279 280 278 276 274 279 277 280 278 280 281 280 281 282 273 274 280 277 280 282 284 285 285 284 282 282 281 279 281 285 285 285 285 284 284 284 283 283 282 282 283 284 283 283 281 281 282 281 281 279 277 277 277 276 275 274 274 274 274 274 274 274 273 272 270 269 268 267 266 266 265 265 264 263 263 263 263 262 263 262 263 263
277 277 280 276 279 279 279 277 279 280 284 281 281 282 280 279 282 275 271 279 279 279 279 284 285 286 285 281 282 281 283 286 286 285 282 282 282 282 282 282 282 283 282 282 282 282 281 281 282 281 281 282 279 277 276 276 276 276 275 274 273 273 274 275 274 272 271 270 269 267 266 266 265 264 264 264 263 263 262 263 263 262 261 261 262 261
275 276 276 279 276 277 278 276 277 280 285 281 282 282 282 281 274 274 283 284 283 282 281 282 284 285 283 283 283 284 286 287 282 282 282 282 283 283 282 281 281 280 280 281 281 280 280 280 280 280 280 280 277 276 275 275 275 276 275 273 273 274 276 274 272 271 269 268 267 266 265 264 263 262 261 260 261 261 261 261 260 260 260 261 261 259
275 275 273 276 278 279 277 275 275 271 280 281 281 279 281 278 280 283 283 281 282 283 282 280 282 284 283 283 283 284 285 283 283 283 283 282 282 282 281 281 281 281 280 280 279 279 279 279 279 279 279 278 275 275 274 275 275 275 273 272 274 275 273 271 270 269 268 266 265 264 263 261 260 260 260 259 260 259 260 260 259 259 259 258 258 258
281 273 272 276 282 273 275 272 273 280 280 282 283 280 281 284 287 285 285 283 282 281 282 282 282 283 283 284 283 283 283 283 281 282 282 282 282 281 280 281 281 282 281 281 281 279 278 279 279 278 277 275 274 273 274 274 275 274 273 273 275 272 270 269 268 267 266 264 263 262 261 259 259 259 259 259 259 259 259 259 258 258 260 259 259 260
280 277 277 275 281 276 276 280 282 282 284 284 287 288 287 287 287 285 285 285 284 283 282 283 283 283 282 282 283 283 282 282 282 283 282 283 283 282 281 281 281 281 281 280 280 278 277 279 278 277 275 273 272 272 272 274 275 273 272 274 272 270 268 267 266 264 263 262 261 260 260 259 259 259 258 258 259 259 259 258 257 259 260 259 259 260
279 279 277 277 277 280 279 280 281 280 282 283 285 286 285 286 286 283 284 284 284 286 283 283 284 284 282 282 281 282 282 283 282 282 281 282 282 282 281 282 281 280 280 280 278 277 276 277 277 276 274 272 271 271 271 272 275 273 274 273 270 269 267 265 263 263 262 261 260 260 258 258 257 257 257 257 259 259 260 260 259 260 260 260 260 260
278 277 276 276 278 275 273 279 279 282 282 282 284 285 285 284 284 284 283 284 286 285 283 283 284 283 282 281 281 282 283 283 282 282 282 282 281 281 280 280 280 280 279 278 279 276 275 275 275 274 273 272 271 270 270 270 272 275 273 269 269 267 265 263 263 262 261 260 261 259 258 259 261 260 258 257 259 259 260 260 260 259 259 260 260 259
275 280 276 277 275 276 276 278 277 278 279 281 282 283 283 285 285 283 284 285 285 285 283 283 282 281 281 280 281 281 282 283 282 282 282 281 281 281 281 280 280 280 280 280 279 276 275 275 275 275 273 273 272 270 270 270 270 271 269 268 267 265 263 262 263 262 261 260 260 260 259 260 259 260 261 260 259 260 260 259 259 260 260 260 260 260
278 279 272 276 275 277 278 278 277 279 280 281 280 280 283 285 286 284 283 283 282 282 282 281 282 282 281 282 282 282 281 282 282 282 282 282 282 281 281 281 280 280 280 279 277 274 275 275 275 276 274 274 274 271 269 268 269 268 267 266 265 263 263 263 262 262 261 260 260 260 260 261 260 261 261 260 259 259 260 260 260 260 260 260 260 260
278 276 277 275 272 273 275 278 279 274 276 281 282 282 282 282 283 283 283 282 282 281 282 282 281 281 281 282 282 281 280 281 282 282 281 282 282 282 282 281 281 280 280 280 278 275 275 275 276 276 275 275 275 271 268 268 268 266 266 265 263 263 263 262 261 260 259 259 260 260 260 260 260 259 259 260 260 259 258 259 261 261 259 260 262 265
278 279 278 275 275 274 279 281 282 282 282 283 284 284 283 283 282 281 282 282 283 283 283 282 282 281 279 279 280 280 281 281 282 283 281 281 281 282 282 282 281 280 279 278 276 274 274 275 274 275 274 275 273 270 268 267 266 264 264 264 263 263 263 262 262 262 261 259 261 260 260 260 260 259 259 259 259 259 259 260 261 265 266 266 266 267
Wind_Speed
1 7 7 8 10 9 10 13 11 3 1 2 2 4 7 7 11 11 5 1 2 5 9 11 12 11 11 12 4 4 5 4 4 5 4 3 3 2 2 2 3 3 3 3 4 5 6 6 6 5 5 6 7 7 7 7 8 8 7 8 8 5 5 6 6 6 7 8 8 8 10 10 7 8 9 10 9 10 9 10 10 10 9 10 10 10
2 8 11 11 5 4 7 6 2 2 2 6 6 5 8 6 12 4 2 5 1 3 7 5 7 11 13 13 3 4 4 5 5 5 5 4 3 2 3 3 2 3 3 2 4 5 5 5 6 5 5 7 8 8 8 8 8 8 8 9 7 5 7 8 8 8 9 8 7 9 8 8 8 9 9 9 9 9 9 11 11 11 10 11 11 10
7 11 9 6 6 4 3 4 5 9 9 4 6 6 6 10 8 9 5 2 2 3 7 5 8 10 11 5 5 2 2 2 2 2 2 4 4 3 3 3 3 3 3 4 4 5 5 6 6 5 6 6 7 7 7 7 8 8 8 8 6 6 7 7 7 9 10 9 9 10 9 10 10 10 10 10 9 10 11 12 11 11 11 11 10 11
6 8 12 6 6 6 3 3 5 3 3 6 5 6 10 2 1 4 5 2 4 3 4 4 9 12 14 4 4 3 2 3 2 2 3 1 4 4 3 2 3 3 3 4 4 4 5 5 5 5 6 6 5 5 6 7 8 7 7 7 7 8 9 9 9 12 12 13 13 13 12 12 11 10 10 11 11 12 13 13 12 12 11 12 11 12
9 4 3 8 7 8 8 6 6 6 7 6 8 9 9 6 6 8 3 1 2 3 1 6 8 10 10 5 3 4 3 4 3 4 4 3 3 3 3 3 2 3 3 4 4 4 4 5 6 6 5 5 5 6 6 5 6 5 7 7 8 9 9 9 10 11 11 12 13 12 12 11 11 10 9 10 11 10 11 11 11 11 11 11 11 11
7 4 5 8 5 6 7 6 8 7 8 5 10 12 11 7 10 7 2 6 5 4 3 1 5 3 2 1 0 3 3 4 4 4 4 4 4 4 4 3 3 3 3 3 4 4 4 5 5 5 6 6 6 6 5 5 6 6 7 8 8 8 8 8 7 6 6 7 8 9 9 9 9 10 9 10 9 9 9 10 8 10 11 11 11 10
2 4 6 6 7 5 6 8 4 8 8 5 4 10 13 11 6 4 3 3 3 4 2 3 3 5 2 4 3 3 3 4 4 4 4 4 4 4 4 3 3 4 4 3 4 4 5 5 5 6 6 6 6 5 4 5 6 7 8 8 8 7 7 7 7 7 7 9 9 11 11 11 10 11 9 8 7 8 8 7 9 9 10 11 12 12
5 3 3 2 5 6 4 8 7 10 6 7 2 1 3 6 7 7 7 7 5 3 2 3 4 7 6 6 4 2 5 5 5 6 5 6 6 5 5 4 4 4 4 4 4 4 4 4 4 5 5 5 5 4 5 6 6 8 9 9 9 8 8 7 7 8 8 10 10 12 12 11 11 11 10 9 8 8 7 8 9 8 9 11 10 10
4 5 7 7 6 5 9 5 7 10 7 1 2 1 3 5 5 6 6 4 1 2 5 6 5 4 4 2 4 3 5 6 7 8 8 8 7 7 6 6 5 5 4 4 5 5 4 4 4 4 5 5 5 4 5 6 7 8 9 9 10 10 9 8 9 10 9 10 10 10 11 12 9 10 9 8 7 8 8 10 8 9 8 9 10 10
1 2 5 6 6 7 3 4 3 11 10 2 4 6 5 4 5 3 3 3 2 3 6 6 8 4 7 3 5 3 3 6 6 10 11 10 10 9 8 7 6 5 4 3 4 4 4 3 3 3 4 5 5 4 6 7 7 8 8 11 12 11 9 8 10 11 11 11 10 11 11 13 10 9 8 8 8 8 8 9 8 7 7 7 8 9
1 1 2 3 6 1 6 5 3 4 4 7 5 5 4 4 3 3 2 2 1 5 7 0 6 7 5 2 5 3 1 3 4 4 7 9 9 9 8 8 7 6 6 5 5 4 4 3 3 4 6 6 5 5 6 6 7 8 9 11 13 11 9 9 10 10 10 9 9 10 11 12 12 11 9 9 8 7 7 8 8 7 7 7 7 7
2 2 3 1 3 4 4 7 5 2 2 2 3 3 4 3 2 2 1 2 3 4 4 2 2 3 6 3 3 2 4 3 3 5 11 12 12 11 9 8 8 7 7 6 6 6 5 5 5 5 7 7 7 7 7 6 7 8 9 11 14 11 10 9 9 10 9 9 10 10 11 12 10 10 9 10 9 8 8 8 7 7 7 7 6 7
5 7 2 3 2 3 5 7 4 3 2 2 2 3 4 2 1 3 2 4 7 4 2 2 1 3 11 7 1 4 4 5 5 1 9 12 13 12 11 10 9 8 8 7 7 7 7 7 8 8 8 8 7 7 8 8 8 9 9 11 14 12 9 9 9 10 10 10 10 10 10 10 9 10 10 10 9 8 7 7 7 6 6 6 6 6
3 4 3 5 3 5 7 8 5 3 6 5 7 5 4 4 2 4 2 2 3 1 1 3 2 6 2 6 7 4 4 3 2 1 0 9 13 14 12 11 9 8 9 8 8 7 8 8 8 8 9 8 7 8 8 8 8 7 9 10 13 12 10 9 10 10 11 10 9 9 9 9 9 9 9 9 8 7 7 6 6 5 5 5 5 4
4 3 8 13 6 8 11 9 6 3 11 10 1 6 2 2 2 4 3 4 1 1 2 1 1 3 6 3 2 1 2 1 1 2 2 3 7 9 9 8 9 9 9 8 8 9 10 9 9 8 8 8 8 9 8 7 8 8 9 10 13 13 10 10 10 10 11 10 9 9 8 8 8 8 8 7 7 6 6 5 5 4 3 4 3 3
7 3 4 3 2 4 12 1 4 8 5 2 0 2 1 4 1 4 1 1 1 2 3 4 5 1 4 1 1 1 1 1 1 3 3 5 7 9 8 10 11 10 11 10 10 11 10 9 9 8 8 7 8 9 8 9 8 9 9 11 12 13 11 10 10 9 9 9 8 8 9 8 8 8 7 7 6 5 5 5 4 4 3 3 3 2
3 5 3 2 0 3 3 3 2 2 6 7 5 6 4 4 2 2 1 3 1 1 8 4 4 4 1 3 2 1 1 2 2 3 5 6 9 10 11 11 12 11 11 11 11 10 11 9 9 8 8 8 8 8 9 9 9 10 11 11 12 11 10 10 9 9 8 8 9 8 8 7 8 8 8 7 7 7 6 5 4 4 4 3 3 2
3 3 1 3 5 1 2 2 3 4 1 8 5 5 4 0 4 2 5 2 3 6 5 5 7 4 5 4 3 2 4 5 5 5 6 7 9 12 13 12 12 12 12 11 10 10 11 10 10 9 8 9 10 10 10 10 9 9 9 11 13 12 12 10 9 9 8 9 8 8 7 7 7 7 7 7 6 5 5 4 4 3 3 4 3 3
2 3 3 3 2 2 1 4 5 3 3 2 0 2 4 3 4 3 0 5 5 6 6 5 6 9 8 4 4 7 8 8 8 6 7 9 11 14 14 12 11 11 11 12 13 11 11 11 11 10 10 10 9 9 9 9 8 8 8 10 10 12 11 11 8 8 7 7 6 5 6 7 6 6 6 6 6 5 5 5 5 5 5 5 5 5
1 4 3 0 2 2 1 5 8 6 1 2 1 3 3 3 1 6 3 2 0 8 4 5 4 9 6 6 12 11 11 10 8 8 10 13 15 14 14 14 15 15 14 13 12 11 11 11 11 11 11 11 10 9 9 9 7 9 9 9 10 9 9 9 9 8 8 7 6 6 6 6 6 6 5 5 5 5 6 6 6 6 6 6 5 6
5 1 4 3 3 2 5 7 6 10 9 4 5 4 2 0 2 3 2 2 3 4 5 7 11 3 4 4 9 11 11 9 11 11 10 10 13 15 14 15 15 14 12 12 11 11 11 11 11 11 10 9 8 8 8 8 10 9 8 9 9 11 10 9 8 7 7 6 6 7 8 7 6 6 5 6 6 7 6 6 6 5 5 4 4 4
2 2 5 5 4 7 2 4 3 1 3 8 10 8 9 6 4 5 5 4 2 4 5 4 11 9 1 1 1 2 4 1 5 6 9 10 10 10 9 11 11 10 10 10 10 10 10 12 11 10 9 8 8 8 10 9 8 9 10 9 9 8 7 8 7 6 6 5 6 7 7 7 5 5 6 7 7 7 6 5 4 3 3 3 3 3
2 2 1 5 6 5 3 2 0 2 1 2 3 5 6 5 4 4 8 3 1 3 3 3 5 11 4 2 2 1 0 2 1 4 7 2 2 5 8 8 7 8 8 9 10 10 10 10 10 11 11 11 11 11 11 10 10 10 10 9 8 8 8 8 7 6 5 6 6 7 6 6 5 6 7 7 6 5 5 4 4 3 3 3 2 3
4 2 4 1 3 2 1 1 2 2 1 2 1 1 4 6 5 8 5 1 4 2 3 5 6 9 2 1 1 1 1 2 2 3 6 4 3 5 6 6 5 6 9 9 6 7 8 8 9 9 11 11 12 12 12 10 10 9 9 9 9 10 9 8 7 6 6 6 7 7 7 6 6 6 5 6 5 5 4 3 3 3 3 2 2 1
5 3 5 6 3 2 2 2 2 2 1 2 3 3 3 1 3 2 3 1 4 8 6 4 12 12 2 1 1 0 1 2 4 6 7 8 6 6 8 10 9 9 9 11 12 11 11 11 13 13 12 13 12 12 12 11 11 11 10 9 9 8 8 7 7 7 6 7 8 7 6 6 5 5 5 5 5 5 4 3 2 2 1 1 1 1
2 4 8 11 10 8 8 11 10 7 8 3 0 1 5 9 7 5 5 6 8 3 7 7 14 12 3 3 3 2 1 4 4 4 6 6 5 6 7 8 10 11 12 14 14 13 15 16 11 9 11 10 11 12 12 12 11 10 9 8 7 8 8 7 6 7 7 7 7 6 6 5 4 5 5 5 4 4 3 2 2 2 2 2 2 2
2 1 5 5 7 9 3 3 3 4 5 4 4 8 9 9 11 10 4 6 11 2 6 12 17 11 13 7 6 4 3 6 5 3 3 4 5 6 7 8 9 9 10 11 12 12 8 9 11 14 11 11 13 14 12 12 11 10 9 8 7 7 8 8 7 7 6 6 7 7 6 5 4 4 4 3 3 3 3 3 3 3 2 2 1 1
2 2 7 6 7 9 4 4 5 2 3 3 4 7 8 10 7 10 10 11 3 3 15 19 15 8 17 20 4 7 7 5 4 2 3 2 4 8 7 6 8 7 7 6 9 10 14 15 12 13 15 14 14 13 11 9 9 9 9 9 8 8 7 6 8 7 7 7 7 6 6 5 4 4 3 3 3 4 4 4 3 3 2 2 1 1
3 5 5 9 10 8 2 4 6 4 8 8 10 13 15 13 7 13 12 12 9 12 19 18 9 9 15 16 2 5 7 7 7 8 7 6 5 4 6 8 10 11 10 12 15 12 10 11 14 16 16 16 15 14 14 12 10 8 7 7 9 8 8 8 8 8 8 7 7 6 6 5 4 3 3 4 4 4 4 3 3 2 2 2 1 1
2 7 4 8 10 10 11 6 6 8 9 7 12 16 19 20 15 12 12 14 15 16 17 17 14 14 16 14 5 9 6 5 4 2 2 6 7 9 8 9 10 11 12 13 14 14 15 16 16 17 16 15 17 16 14 11 11 10 10 9 9 8 8 9 9 9 8 7 7 7 6 5 4 4 4 4 4 4 3 3 3 3 2 2 1 1
4 2 6 4 5 8 4 6 7 7 5 10 14 18 21 20 15 12 15 16 15 17 22 22 15 20 16 8 11 5 1 3 2 6 10 9 6 7 8 9 11 12 13 14 14 13 14 16 17 15 15 16 16 16 14 12 9 9 9 10 10 9 9 9 9 8 8 8 7 7 6 5 5 5 5 5 4 3 3 3 3 2 2 1 1 0
2 4 2 2 5 6 4 7 5 3 1 9 15 21 24 16 15 16 14 15 16 15 16 8 11 17 13 6 5 6 5 7 10 10 6 4 5 6 9 10 11 13 13 12 12 13 14 15 15 15 16 16 15 13 10 10 10 11 11 11 10 10 10 9 9 8 8 8 8 7 7 6 5 5 5 4 4 4 3 3 3 2 2 1 1 1
5 4 3 4 6 5 3 7 7 5 2 7 17 22 13 13 16 12 13 15 16 14 11 14 17 12 12 4 8 6 8 8 8 6 5 5 6 8 9 10 11 9 8 9 11 12 13 14 15 15 15 15 12 12 11 10 11 12 10 10 10 10 10 9 9 8 8 8 8 7 7 6 6 5 5 4 4 3 3 2 2 2 2 1 0 1
3 6 4 5 5 2 6 4 6 5 9 14 1 5 10 14 13 15 15 16 12 11 10 11 12 7 2 6 10 10 8 10 9 7 5 5 6 7 8 8 7 7 7 9 10 11 13 12 12 13 13 11 10 14 12 12 12 10 8 9 9 10 9 10 8 8 8 8 7 7 6 6 5 5 5 4 4 3 2 2 2 2 1 1 1 1
7 7 7 4 4 4 6 7 6 12 14 8 3 3 6 2 4 7 12 14 14 12 12 13 12 11 11 6 7 8 8 3 0 5 7 6 5 5 6 7 8 9 9 9 10 11 11 13 13 13 12 12 12 14 12 11 10 9 9 10 10 9 10 8 9 7 8 8 7 7 7 6 6 5 5 4 3 3 2 2 2 2 1 1 1 1
6 8 5 3 6 2 3 8 8 11 4 3 4 5 1 4 3 4 12 14 10 11 15 16 17 17 6 6 6 2 1 2 3 5 6 6 7 8 8 8 9 9 10 9 10 10 10 12 13 13 13 11 9 10 11 11 10 10 10 9 9 9 8 9 8 8 8 8 7 7 7 7 6 5 5 4 3 3 3 3 2 2 1 1 1 1
9 4 7 5 7 6 6 10 15 7 13 13 11 6 8 6 6 7 10 9 10 12 11 12 13 10 6 8 6 3 1 1 5 8 8 11 10 10 11 9 4 4 4 5 6 8 8 9 9 10 7 7 9 9 10 9 10 10 10 10 8 9 8 8 8 8 8 8 8 8 8 7 7 6 5 4 4 4 3 3 3 2 1 1 1 1
7 10 6 8 6 10 10 11 10 7 11 11 12 1 2 3 4 1 5 6 1 2 5 7 9 8 9 5 4 4 3 1 8 9 6 9 9 11 7 0 1 3 5 5 4 4 3 4 5 6 7 9 9 10 9 11 12 11 10 10 9 9 8 9 9 9 8 8 8 8 8 7 6 6 5 5 5 4 3 3 2 2 1 1 1 1
3 4 7 14 9 9 13 12 10 12 8 2 2 4 1 1 5 4 0 8 2 8 9 11 10 5 5 6 5 6 4 5 8 8 3 5 5 7 6 6 7 7 6 5 6 5 5 5 6 7 8 10 11 10 11 12 12 11 11 10 10 9 10 10 10 10 10 9 8 8 7 6 6 5 6 6 5 4 4 3 3 2 1 1 1 1
6 5 5 8 12 13 13 14 14 8 7 1 3 2 3 2 2 1 6 4 2 3 1 2 7 8 6 6 8 6 6 5 7 5 2 1 2 5 7 7 6 6 6 4 3 4 6 7 8 8 10 12 12 11 11 12 12 12 12 11 10 11 11 11 11 9 8 8 8 7 6 6 6 6 6 5 5 4 4 3 3 2 1 1 1 1
4 3 7 14 10 13 20 14 8 7 1 3 7 6 4 3 0 4 12 2 3 4 6 6 7 6 6 7 8 5 9 9 1 3 2 1 2 3 3 1 1 1 4 6 5 5 6 7 9 10 11 9 10 11 11 11 10 11 10 9 10 11 12 9 8 8 8 8 7 7 7 5 6 6 5 5 5 4 4 3 2 2 1 1 1 1
1 3 2 4 9 11 10 8 8 5 3 8 2 7 8 4 6 11 1 2 7 5 5 8 7 4 6 9 8 9 7 2 4 1 1 1 1 1 2 3 3 3 2 2 5 6 5 5 5 4 5 7 10 10 9 9 14 9 10 9 11 13 8 8 8 8 7 8 7 7 7 6 5 5 5 4 4 4 3 3 2 1 1 1 1 2
9 7 8 11 5 1 3 8 6 11 2 11 10 5 4 5 5 2 1 0 1 2 7 6 7 4 7 7 10 10 6 3 4 4 3 2 2 1 2 4 5 6 6 5 5 6 5 6 7 8 8 6 8 8 8 13 15 12 10 11 16 8 8 8 8 8 8 7 7 7 6 6 6 5 4 4 4 4 3 3 3 2 2 2 2 3
5 3 3 4 7 6 10 10 7 1 6 11 12 6 5 9 2 5 3 2 2 3 4 5 6 8 8 9 7 8 8 4 1 4 4 4 4 2 1 3 3 3 3 4 4 8 7 5 5 6 5 6 7 7 9 14 14 13 14 21 8 8 7 7 7 8 8 7 7 7 6 6 5 4 4 5 5 4 3 3 2 2 2 1 2 2
10 8 2 4 5 7 7 6 1 2 9 10 8 4 5 6 5 7 4 3 4 4 4 3 5 6 9 9 9 7 4 7 9 7 8 8 7 6 7 8 8 8 9 9 8 7 7 9 7 7 5 6 8 8 10 11 15 15 17 11 10 10 10 10 11 11 12 8 8 7 6 5 5 5 4 4 4 4 3 3 3 2 2 2 2 2
5 1 1 1 2 2 5 2 2 0 3 10 6 1 1 3 3 2 3 3 5 4 6 6 7 7 7 7 5 5 7 7 8 7 7 7 6 7 7 5 5 5 5 3 2 7 8 5 4 7 9 7 9 9 10 10 11 17 16 7 10 9 10 14 15 12 9 8 7 7 7 7 5 4 4 4 3 3 2 3 3 2 2 2 2 2
4 3 1 3 1 1 6 5 8 7 4 6 9 7 3 2 3 3 4 6 5 4 4 6 4 2 3 3 8 9 9 8 7 7 7 6 7 7 7 8 8 8 8 9 11 9 7 9 9 11 12 13 10 10 8 11 10 7 3 11 7 8 12 17 14 10 9 8 7 6 6 7 6 5 4 4 3 3 3 3 3 2 2 2 2 2
4 8 2 5 2 6 3 4 2 3 2 3 4 5 7 10 8 7 6 5 5 2 3 5 3 2 4 5 9 9 11 8 7 8 6 7 8 7 7 8 9 7 9 10 6 10 7 9 12 13 13 13 11 10 10 10 10 8 8 7 9 13 15 14 10 10 9 8 8 7 7 6 6 6 4 4 4 3 3 3 4 3 4 4 3 2
3 8 4 4 4 6 5 4 1 2 4 7 6 8 8 7 5 5 8 8 6 5 6 4 5 6 7 9 8 7 6 9 8 9 9 8 6 6 8 9 9 11 9 8 9 11 13 13 14 14 14 13 9 10 9 11 9 9 9 8 12 18 13 9 11 9 8 7 6 6 6 5 5 4 4 4 3 3 3 3 4 4 4 4 4 4
5 7 4 3 2 4 9 9 11 2 5 8 11 11 10 11 8 8 6 5 7 9 8 7 7 7 8 7 7 7 8 9 10 9 10 9 9 10 9 9 9 9 10 8 7 11 11 11 13 13 13 10 7 11 14 11 11 10 7 8 9 11 14 14 9 8 7 7 7 6 6 5 4 4 3 3 3 3 3 6 9 7 5 4 8 13
10 12 10 8 8 8 9 5 10 11 11 8 4 8 11 9 7 9 11 12 11 9 7 6 9 8 9 9 8 9 12 11 12 9 10 9 9 9 9 10 10 8 9 7 8 9 12 12 12 11 11 9 7 11 13 12 13 10 8 9 11 12 13 15 9 6 6 7 6 7 6 5 5 4 3 3 2 2 2 1 4 10 13 12 11 12
Wind_Direction
345 197 193 209 218 205 202 210 236 34 49 73 199 240 256 262 268 271 265 228 95 289 258 257 265 264 266 272 144 130 139 148 158 173 177 176 165 158 123 110 86 65 56 34 34 34 27 26 20 22 25 39 52 42 36 50 53 56 71 79 69 50 56 81 81 79 85 87 86 74 68 72 63 62 61 58 51 50 46 43 44 42 41 38 39 36
232 221 224 225 226 213 219 216 192 223 202 247 262 249 260 217 266 277 304 93 128 262 283 260 267 265 263 263 111 125 177 188 179 183 187 171 162 138 142 125 103 89 99 90 64 47 43 35 31 35 36 32 50 35 39 46 47 55 60 69 73 69 72 73 80 88 78 69 73 86 75 76 65 61 59 61 53 52 50 46 44 43 41 42 43 38
204 223 230 212 79 89 75 183 209 227 235 191 243 258 261 259 267 274 274 78 197 193 273 306 288 278 272 241 106 140 166 135 182 231 190 168 161 155 140 127 125 132 116 92 76 60 59 50 45 50 49 51 50 48 50 49 57 54 55 57 61 64 69 68 78 84 83 82 79 84 88 84 80 68 69 69 63 56 55 49 45 43 42 42 42 41
235 232 238 114 138 143 115 146 169 176 229 229 209 230 242 260 276 268 124 108 123 245 317 339 300 283 277 142 96 92 170 142 125 138 114 157 167 154 141 139 148 133 119 95 73 70 59 56 56 54 52 48 53 60 59 55 60 61 63 64 68 68 68 71 73 82 86 87 90 87 88 84 83 86 78 71 61 56 53 50 44 43 41 41 44 40
224 61 16 148 165 188 202 169 190 211 237 204 230 238 252 227 228 234 300 335 157 198 245 269 270 267 260 232 175 119 118 135 138 134 138 117 92 107 111 119 75 107 104 102 96 76 64 61 51 49 48 51 58 56 53 51 64 73 75 76 76 75 76 81 84 89 97 100 96 98 97 95 93 82 74 70 61 57 57 56 46 42 42 43 45 43
240 102 109 129 158 191 209 206 210 218 251 224 215 230 246 247 257 237 298 312 275 241 131 283 284 252 117 226 256 127 176 174 153 178 163 146 152 167 161 130 118 91 61 81 82 69 60 63 65 61 56 55 58 57 43 50 68 84 86 83 82 82 82 82 80 90 100 101 107 109 101 90 81 72 59 57 59 56 55 57 58 51 46 47 47 45
263 100 180 166 166 170 207 235 191 193 251 255 266 204 229 241 246 230 187 187 250 263 105 261 297 277 205 290 177 176 202 187 138 198 169 168 176 182 160 153 141 135 122 101 96 93 92 77 79 68 59 60 65 57 55 67 75 80 80 78 78 82 80 74 78 80 88 84 82 84 87 90 89 91 77 74 69 70 65 64 60 55 46 43 45 41
148 141 139 202 182 184 201 239 193 187 222 245 64 164 180 204 205 208 197 215 269 45 178 206 247 270 286 274 97 192 222 205 188 190 184 195 189 178 168 163 157 146 141 131 117 105 93 86 85 86 71 70 77 78 82 82 82 82 83 85 84 81 79 77 83 77 77 89 88 90 89 86 86 87 93 83 75 70 68 66 60 59 54 48 45 44
188 152 179 163 188 182 223 244 122 188 204 331 26 279 165 188 200 169 192 208 304 335 269 195 144 255 240 207 149 191 248 207 210 194 193 196 189 180 176 173 162 150 139 138 137 132 122 116 105 106 103 100 101 95 98 98 95 93 91 91 91 87 83 80 82 87 84 89 94 95 96 93 88 90 89 87 80 73 66 66 59 58 59 58 52 46
345 230 196 174 161 209 145 21 190 177 213 106 123 85 83 81 77 161 189 183 154 237 251 219 173 251 271 228 241 124 263 276 214 191 193 191 186 183 179 171 160 146 139 135 128 129 124 116 115 106 115 110 105 102 104 103 103 99 100 98 94 90 88 89 89 90 89 89 94 94 97 101 101 97 92 85 78 71 66 65 60 57 54 52 52 49
42 258 319 185 205 88 104 53 38 22 38 123 175 114 99 81 97 96 69 143 183 236 242 74 178 234 284 183 240 205 307 57 107 159 180 179 182 184 183 170 165 162 158 159 155 149 140 132 142 148 128 118 115 110 112 106 105 104 102 100 93 92 94 91 89 90 89 89 90 94 96 98 100 97 94 91 82 80 74 71 64 59 55 49 48 48
179 103 191 214 58 112 108 94 50 82 98 184 175 159 137 110 139 154 131 205 241 253 87 5 232 218 216 215 234 168 122 172 178 186 181 183 186 184 179 170 166 166 166 162 164 161 159 163 162 153 140 137 128 121 116 111 108 104 103 105 101 96 95 94 96 96 92 91 89 91 93 93 93 96 95 90 87 79 75 69 67 61 58 50 47 43
235 212 125 87 257 163 149 108 87 102 167 206 164 176 212 176 195 201 165 220 204 253 99 36 173 189 235 254 344 129 198 179 190 202 186 182 183 181 176 170 168 168 168 170 172 172 176 173 170 165 153 145 143 132 126 122 117 113 111 113 110 106 105 103 103 98 96 94 92 93 94 92 91 91 91 88 85 79 76 72 70 64 63 54 48 39
211 79 172 174 128 234 189 181 146 172 187 191 195 183 190 218 212 264 202 348 310 170 19 118 70 256 25 255 260 241 113 94 141 146 324 188 184 180 173 169 166 169 174 178 178 183 186 180 176 168 161 153 145 141 136 134 128 124 122 121 113 113 113 112 107 103 100 95 96 96 96 96 96 93 89 87 87 83 81 80 78 77 76 75 70 64
201 204 200 160 213 149 198 221 172 153 165 198 73 196 244 203 188 230 191 231 283 50 113 252 232 221 167 170 23 339 4 314 255 255 249 246 189 173 156 152 162 172 181 180 187 190 188 184 177 170 164 158 154 149 145 141 138 128 125 125 120 119 118 114 109 106 103 100 97 96 96 99 100 98 96 92 93 96 98 95 95 89 88 88 86 78
231 296 63 43 7 137 188 67 95 104 99 115 272 3 278 228 105 266 26 298 287 275 217 172 239 186 219 68 68 311 233 211 178 212 197 203 185 149 154 171 180 184 183 186 191 192 190 181 177 171 168 165 158 155 151 149 146 137 131 129 124 122 123 119 115 111 110 108 107 106 105 103 102 102 103 102 100 99 99 105 102 100 96 98 102 93
63 218 78 114 114 179 175 131 154 243 205 163 146 206 189 13 205 107 139 73 45 218 252 149 240 233 9 215 149 198 226 198 156 184 190 185 179 173 185 186 187 188 186 188 194 191 185 179 180 177 172 169 166 165 163 159 154 146 139 134 128 125 123 123 119 118 115 115 113 110 111 113 112 111 108 109 110 108 105 109 118 116 114 108 93 92
185 132 72 151 180 33 21 297 72 42 13 112 216 193 86 344 357 235 261 146 228 257 271 127 224 228 156 261 103 242 266 215 186 180 192 182 181 193 197 191 189 188 189 191 192 190 185 181 181 179 179 179 175 168 162 160 153 146 139 138 133 135 133 132 130 126 126 124 118 119 117 111 108 110 116 122 130 131 124 122 112 110 93 66 60 58
204 169 126 357 41 79 255 205 99 58 357 280 329 46 189 169 197 176 219 250 240 240 274 216 207 251 212 228 139 221 217 222 194 174 181 199 197 205 203 194 185 186 189 192 193 187 184 182 182 183 183 183 181 173 163 157 151 146 140 140 140 139 140 139 135 131 126 126 124 125 124 123 120 118 112 109 107 109 101 89 78 69 61 52 40 36
298 229 127 97 146 130 206 204 189 165 122 84 138 152 36 300 258 171 205 316 359 281 290 258 142 272 158 215 170 195 197 211 160 171 210 209 204 203 201 190 186 192 196 192 187 185 181 181 182 183 184 184 182 175 165 158 155 154 148 147 144 140 141 140 137 136 133 130 129 128 122 112 106 98 97 96 96 86 75 66 58 51 44 37 34 33
179 307 210 106 301 185 180 204 216 160 161 150 181 183 166 220 346 335 325 207 248 264 263 291 294 272 163 163 172 190 200 188 167 196 206 207 213 212 203 192 191 195 189 183 181 176 176 179 182 185 186 185 180 173 164 165 166 160 158 157 154 150 148 145 141 139 137 136 134 127 114 107 103 104 101 94 84 81 73 65 59 54 48 44 41 33
163 191 201 131 165 207 199 30 356 230 185 175 174 193 187 156 184 194 225 97 229 223 248 259 267 286 16 307 51 59 31 142 206 194 201 213 217 209 205 201 196 183 179 174 171 171 176 181 183 184 185 180 175 173 174 174 172 168 169 164 157 150 148 145 144 144 140 131 122 112 108 106 108 103 97 90 80 76 75 72 70 68 63 64 52 41
149 83 113 182 201 188 79 54 299 321 327 346 257 208 190 190 200 207 241 196 85 232 32 274 318 275 101 120 95 102 103 310 263 248 251 247 242 224 207 206 191 178 169 171 173 178 180 181 184 186 184 181 182 181 181 181 180 175 172 163 158 156 154 151 145 139 136 129 121 117 115 115 103 96 96 96 94 95 94 89 82 71 67 55 47 37
97 184 184 191 61 73 135 215 192 229 225 188 204 23 166 201 204 226 245 172 223 163 226 225 232 264 118 331 6 214 256 273 272 259 248 262 232 217 218 208 177 163 158 165 171 181 182 179 180 184 185 184 187 187 186 184 181 177 172 166 163 163 153 143 140 141 133 126 121 123 119 108 108 115 119 112 107 105 96 90 88 69 63 52 40 27
173 196 199 187 195 183 176 159 165 117 191 231 211 170 236 76 83 60 78 81 250 212 224 221 255 259 107 243 246 230 245 241 228 220 220 226 210 200 194 198 195 174 167 175 180 186 185 187 192 195 190 188 185 186 188 184 184 180 173 168 168 155 150 141 144 141 137 132 127 122 115 119 127 127 117 108 103 103 97 94 89 92 99 94 170 213
207 144 166 200 200 195 194 210 210 204 207 173 146 140 218 192 164 152 212 200 237 195 143 218 248 254 121 236 210 191 245 255 233 221 204 214 219 196 201 202 190 181 188 185 183 180 191 197 190 177 180 182 186 187 186 185 183 177 169 169 156 149 148 147 146 145 139 136 125 120 123 129 127 118 106 103 109 120 125 130 144 156 161 161 196 202
167 184 219 212 212 221 229 77 15 66 97 184 192 193 197 203 201 204 228 222 228 193 199 226 237 266 274 227 151 191 205 222 197 186 212 212 204 212 215 208 197 199 198 195 187 184 140 169 189 190 180 185 189 189 186 183 176 172 168 164 161 151 148 150 145 140 133 131 127 132 138 138 131 122 126 137 145 150 160 165 164 170 157 164 173 172
107 214 222 226 240 249 85 104 153 196 175 182 181 226 207 193 186 195 208 230 123 75 259 249 238 237 254 264 205 175 205 225 231 195 189 193 206 211 205 200 201 203 203 165 179 193 201 202 190 186 191 190 192 189 184 175 170 170 168 163 162 157 149 149 145 141 139 138 137 137 141 138 130 135 147 154 165 175 170 164 159 153 149 146 165 165
161 215 206 185 240 243 159 148 145 192 248 255 250 253 252 230 177 199 218 235 228 231 247 257 254 231 253 261 176 182 213 208 207 213 207 201 205 203 183 191 200 207 192 187 200 197 197 191 197 196 194 194 188 187 181 174 170 162 161 162 164 161 158 151 146 145 146 144 140 141 140 137 136 144 163 180 183 181 171 153 140 144 149 148 155 169
176 241 180 178 229 237 231 160 169 217 238 243 241 245 248 248 229 189 221 229 227 239 247 262 270 267 259 260 287 257 198 185 181 182 167 192 209 201 196 201 205 208 202 206 208 204 203 206 204 200 194 190 188 187 182 174 173 174 169 165 160 158 159 155 155 151 150 146 140 141 144 144 148 170 180 188 190 185 170 153 147 153 149 146 122 145
176 253 85 176 233 247 238 140 177 209 218 247 256 252 248 245 246 223 224 232 236 242 248 254 264 267 261 283 267 267 98 167 162 203 207 207 192 179 192 205 211 214 216 215 214 206 206 207 205 198 194 193 190 190 181 178 169 160 161 164 166 165 163 161 153 151 150 144 142 143 145 155 167 175 190 192 187 181 169 150 150 148 145 130 103 77
193 228 84 141 218 246 115 141 181 184 227 242 260 255 246 237 233 220 223 224 229 230 239 250 253 256 268 251 222 216 190 188 210 217 213 210 204 193 202 211 212 218 219 215 211 206 206 207 203 199 198 193 190 180 170 167 165 170 179 168 165 162 160 157 151 148 148 144 144 147 159 164 164 184 191 183 187 182 164 143 141 139 113 107 97 352
186 156 155 180 219 241 103 136 127 131 180 264 245 244 248 234 223 225 222 223 226 231 233 237 246 245 261 180 211 208 201 217 230 229 226 225 218 213 217 216 220 222 216 209 209 208 209 206 203 200 196 195 188 176 178 169 170 180 172 162 162 148 156 154 151 148 147 147 148 159 166 161 171 185 185 188 186 180 150 128 139 129 129 136 125 257
146 179 198 166 220 122 111 137 143 165 230 232 316 100 218 231 220 217 228 231 219 196 225 229 248 258 210 189 204 214 203 218 221 223 217 224 219 213 225 232 237 234 228 220 215 211 209 205 203 200 193 187 180 179 179 177 181 173 150 148 145 151 153 149 150 150 149 148 157 163 161 163 176 185 182 184 185 161 140 143 145 125 151 159 223 227
171 194 203 180 196 214 141 137 180 217 233 242 53 8 23 313 236 228 240 244 244 224 228 240 249 237 228 204 204 217 213 194 162 226 224 223 233 236 222 227 225 223 224 218 219 218 211 205 199 195 188 187 186 185 172 173 168 139 141 151 154 159 151 153 148 152 152 156 163 162 161 169 180 184 179 180 170 153 158 161 139 154 176 189 234 264
179 186 185 210 197 59 154 189 234 220 235 14 243 86 21 106 223 254 259 252 238 215 215 224 234 243 210 205 221 193 152 268 295 256 238 240 215 210 218 222 218 212 216 215 213 216 209 203 197 190 195 196 168 169 170 169 154 149 158 156 159 157 156 151 152 156 157 160 167 167 169 173 181 181 179 170 163 174 174 156 160 164 172 202 243 244
190 168 188 225 177 217 193 205 235 313 299 278 262 180 167 181 167 192 257 249 219 205 205 215 231 241 222 219 200 150 94 336 272 268 201 218 209 212 219 221 207 215 214 227 217 225 215 206 201 201 186 162 162 156 163 149 148 149 147 159 162 157 157 157 160 166 164 167 167 170 172 179 179 177 173 165 176 181 169 160 170 169 172 195 252 258
213 195 187 215 214 204 228 244 249 226 239 237 243 59 115 172 142 183 238 271 194 171 179 190 226 228 215 185 150 127 114 268 268 263 177 205 204 214 228 129 119 187 207 216 221 245 211 193 181 171 166 165 164 165 153 148 155 154 156 161 159 161 166 172 179 170 166 172 168 168 172 177 174 169 170 174 186 171 160 152 163 171 174 205 238 272
309 262 217 217 233 222 227 233 231 245 243 253 308 144 213 113 146 144 77 272 144 168 191 194 215 216 188 163 148 154 177 230 247 255 133 177 199 210 204 215 212 209 202 199 196 192 186 183 173 160 157 159 167 169 153 151 149 151 163 164 167 172 170 186 179 173 173 171 161 163 165 168 171 170 172 184 172 160 161 168 171 164 181 198 215 247
199 196 184 222 224 228 238 237 239 232 267 111 174 179 167 113 199 154 256 283 96 197 136 168 224 232 195 163 154 173 191 227 248 261 62 231 168 179 194 202 197 196 188 169 182 182 161 148 137 156 170 178 177 152 149 150 158 169 169 174 169 176 188 189 183 164 154 150 151 153 159 164 165 171 177 173 158 161 165 157 163 170 173 206 256 253
174 226 208 214 213 220 226 243 259 261 210 136 167 156 118 182 291 216 234 158 172 193 209 204 216 217 154 154 169 194 220 224 261 58 79 133 132 166 207 161 87 137 163 169 170 152 159 170 176 178 181 174 151 150 158 159 162 175 179 162 172 194 198 175 142 146 149 147 148 153 159 162 168 169 173 166 161 158 153 160 154 150 168 212 240 283
271 136 279 229 230 225 223 245 239 284 212 140 265 135 152 124 228 242 272 128 161 191 200 200 211 206 156 181 193 218 232 144 87 53 113 176 185 68 120 134 121 106 84 128 147 166 168 173 180 158 158 168 155 160 163 160 171 178 163 172 197 203 166 132 145 149 146 145 151 155 155 159 155 163 159 156 156 153 149 138 135 162 178 233 247 278
176 159 201 208 208 242 191 244 242 246 144 127 131 68 240 201 261 72 150 242 191 160 164 202 218 208 181 214 218 227 231 117 188 198 203 196 226 206 173 174 187 180 172 161 175 198 169 171 188 196 181 154 152 160 163 169 180 181 177 191 207 169 137 149 146 146 145 146 149 152 152 151 161 165 162 158 157 144 138 149 156 174 186 195 237 241
193 142 214 230 192 190 199 214 216 65 128 171 148 193 184 211 166 147 164 175 162 176 179 186 215 214 206 214 226 233 234 190 184 226 226 235 232 222 208 220 227 222 207 210 193 178 180 189 187 177 162 151 163 168 171 179 183 186 187 210 179 127 136 141 145 141 144 148 147 144 154 159 162 165 166 155 148 146 147 159 155 194 204 178 235 251
203 196 181 199 178 176 202 221 91 121 153 195 205 206 187 184 161 189 167 171 158 216 192 206 223 209 207 217 231 232 233 213 222 207 203 215 211 202 208 213 208 207 201 196 199 179 181 195 186 172 164 178 178 184 186 191 188 185 200 199 135 157 157 151 148 146 149 152 154 160 156 161 169 166 160 152 152 153 162 162 174 203 186 184 222 238
351 95 84 71 233 354 315 245 53 256 211 196 232 209 215 213 184 140 194 186 221 186 165 191 222 213 207 207 217 247 230 228 215 213 216 231 217 216 217 225 224 228 229 213 175 181 196 182 153 170 185 191 192 194 198 204 196 192 208 142 156 157 150 143 138 151 158 153 162 165 154 158 159 160 150 154 159 166 169 160 179 198 200 201 224 227
217 131 139 212 263 139 246 114 165 192 185 199 223 236 241 270 226 191 209 227 239 194 199 234 234 239 184 161 206 228 235 223 220 221 212 226 225 221 211 214 218 204 199 201 207 174 169 177 181 196 193 202 197 199 203 204 219 220 120 154 151 146 146 144 146 144 153 164 165 157 168 170 171 162 157 165 166 170 174 179 184 193 214 206 209 220
272 154 161 220 208 205 242 131 232 354 282 260 241 239 239 244 225 200 221 234 237 262 220 223 176 201 158 188 209 216 237 231 215 232 221 219 221 216 217 217 217 208 213 220 194 169 164 186 200 205 198 208 200 195 198 201 210 185 149 148 150 140 138 151 167 165 166 163 163 167 175 177 154 158 158 166 172 176 180 188 195 205 211 202 198 213
139 117 207 192 195 236 291 260 164 352 287 247 216 226 242 242 235 205 215 227 229 238 237 215 197 205 187 216 195 206 233 246 222 226 229 235 229 232 229 224 217 216 207 190 188 183 189 194 205 211 208 218 197 179 186 200 194 164 171 165 150 151 158 166 161 149 147 158 161 167 170 169 162 170 158 153 173 203 205 192 191 204 223 218 210 218
126 221 156 113 183 216 217 208 142 196 243 234 215 215 219 230 219 236 238 235 232 231 229 221 221 217 222 225 208 198 215 236 230 219 229 232 229 226 230 232 228 223 225 215 187 196 209 209 209 212 213 223 182 181 194 197 186 172 175 158 160 161 167 160 151 156 168 170 174 159 162 166 163 157 160 161 171 183 233 231 226 220 209 229 228 234
195 210 146 197 202 228 215 151 171 205 223 231 204 199 216 217 193 216 232 231 230 225 219 216 236 218 217 231 215 205 215 224 234 217 223 233 235 230 229 229 231 231 220 189 193 204 211 215 213 218 225 217 171 188 196 193 180 173 178 170 173 177 172 146 157 166 162 170 182 170 162 158 156 166 161 159 162 184 235 282 223 229 240 248 253 257